Weather History for Boonville, MO

Change the Weather History Date:

Thursday, January 31, 2013

  Actual Average Record
Temperature  
Mean Temperature 19 °F -  
Max Temperature 28 °F 39 °F 63 °F (2012)
Min Temperature 10 °F 19 °F -7 °F (1949)
Degree Days  
Heating Degree Days 46    
Moisture  
Dew Point 10 °F    
Average Humidity 61    
Maximum Humidity 73    
Minimum Humidity 49    
Precipitation  
Precipitation 0.00 in - - ()
Sea Level Pressure  
Sea Level Pressure 30.14 in    
Wind  
Wind Speed 10 mph (WNW)    
Max Wind Speed 21 mph    
Max Gust Speed 31 mph    
Visibility 10 miles    
Events      
Averages and records for this station are not official NWS values.
T = Trace of Precipitation, MM = Missing Value Source: NWS Daily Summary

Daily Weather History Graph

Daily Weather History Graph

Search for Another Location

Airport:

Trip Planner

Search our weather history database for the weather conditions in past years. The results will help you decide how hot, cold, wet, or windy it might be!

Date:

Astronomy

Jan. 31, 2013 Rise Set
Actual Time 7:17 AM CST 5:31 PM CST
Civil Twilight 6:49 AM CST 5:59 PM CST
Nautical Twilight 6:17 AM CST 6:31 PM CST
Astronomical Twilight 5:46 AM CST 7:02 PM CST
Moon 10:30 PM CST (1/31) 9:20 AM CST (1/31)
Length of Visible Light 11h 09m
Length of Day
10h 13m
Waning Gibbous, 79% of the Moon is Illuminated
Jan 31
Waning Gibbous
Feb 3
Last Quarter
Feb 10
New
Feb 17
First Quarter
Feb 25
Full

Hourly Weather History & Observations

Time (CST) Temp. Windchill Dew Point Humidity Pressure Visibility Wind Dir Wind Speed Gust Speed Precip Events Conditions
12:15 AM 25.7 °F 15.7 °F 16.0 °F 67% 29.96 in 10.0 mi West 10.4 mph 16.1 mph N/A   Overcast
12:35 AM 25.7 °F 17.1 °F 16.7 °F 69% 29.96 in 10.0 mi West 8.1 mph - N/A   Overcast
12:55 AM 25.7 °F 14.6 °F 16.3 °F 68% 29.96 in 10.0 mi West 12.7 mph - N/A   Overcast
1:15 AM 25.5 °F 16.9 °F 15.8 °F 67% 29.97 in 10.0 mi West 8.1 mph 17.3 mph N/A   Overcast
1:35 AM 25.3 °F 16.0 °F 14.7 °F 64% 29.98 in 10.0 mi West 9.2 mph 18.4 mph N/A   Overcast
1:55 AM 25.0 °F 19.3 °F 14.4 °F 64% 29.96 in 10.0 mi WSW 4.6 mph - N/A   Mostly Cloudy
2:15 AM 25.0 °F 17.1 °F 15.1 °F 66% 29.96 in 10.0 mi WSW 6.9 mph - N/A   Overcast
2:35 AM 25.3 °F 19.7 °F 16.0 °F 68% 29.96 in 10.0 mi WSW 4.6 mph - N/A   Overcast
2:55 AM 25.0 °F 18.1 °F 16.0 °F 69% 29.96 in 10.0 mi WSW 5.8 mph - N/A   Overcast
3:15 AM 25.2 °F 18.3 °F 16.3 °F 69% 29.96 in 10.0 mi WSW 5.8 mph - N/A   Overcast
3:35 AM 25.3 °F 18.5 °F 16.5 °F 69% 29.96 in 10.0 mi WSW 5.8 mph - N/A   Overcast
3:55 AM 25.5 °F 16.9 °F 16.7 °F 69% 29.96 in 10.0 mi WSW 8.1 mph - N/A   Overcast
4:15 AM 25.5 °F 17.8 °F 17.1 °F 70% 29.96 in 10.0 mi WSW 6.9 mph - N/A   Overcast
4:35 AM 25.7 °F 16.4 °F 17.1 °F 70% 29.96 in 10.0 mi SW 9.2 mph - N/A   Overcast
4:55 AM 25.9 °F 18.2 °F 17.4 °F 70% 29.96 in 10.0 mi WSW 6.9 mph - N/A   Overcast
5:15 AM 26.1 °F 18.4 °F 17.4 °F 70% 29.95 in 10.0 mi WSW 6.9 mph - N/A   Overcast
5:35 AM 26.2 °F 20.7 °F 17.6 °F 70% 29.95 in 10.0 mi West 4.6 mph - N/A   Overcast
5:55 AM 26.2 °F 19.6 °F 18.0 °F 71% 29.96 in 10.0 mi WSW 5.8 mph - N/A   Overcast
6:15 AM 26.4 °F 20.9 °F 18.1 °F 71% 29.95 in 10.0 mi West 4.6 mph - N/A   Overcast
6:35 AM 26.4 °F 22.4 °F 18.0 °F 70% 29.96 in 10.0 mi WNW 3.5 mph - N/A   Overcast
6:55 AM 26.4 °F 19.8 °F 17.6 °F 69% 29.97 in 10.0 mi West 5.8 mph - N/A   Overcast
7:15 AM 26.6 °F 19.1 °F 18.3 °F 71% 29.99 in 10.0 mi West 6.9 mph - N/A   Overcast
7:35 AM 26.6 °F 21.2 °F 18.5 °F 71% 30.00 in 10.0 mi West 4.6 mph - N/A   Overcast
7:55 AM 26.6 °F 19.1 °F 18.9 °F 73% 30.01 in 10.0 mi West 6.9 mph - N/A   Overcast
8:15 AM 26.6 °F 19.1 °F 18.7 °F 72% 30.02 in 10.0 mi West 6.9 mph - N/A   Overcast
8:35 AM 27.0 °F 18.7 °F 18.9 °F 72% 30.03 in 10.0 mi West 8.1 mph - N/A   Overcast
8:55 AM 27.3 °F 17.7 °F 18.5 °F 69% 30.03 in 10.0 mi West 10.4 mph 17.3 mph N/A   Overcast
9:15 AM 27.9 °F 19.1 °F 18.1 °F 67% 30.04 in 10.0 mi WNW 9.2 mph - N/A   Mostly Cloudy
9:35 AM 28.2 °F 18.9 °F 17.4 °F 64% 30.05 in 10.0 mi West 10.4 mph - N/A   Scattered Clouds
9:55 AM 28.4 °F 19.1 °F 16.3 °F 61% 30.05 in 10.0 mi WNW 10.4 mph 17.3 mph N/A   Scattered Clouds
10:15 AM 28.4 °F 17.5 °F 16.7 °F 62% 30.06 in 10.0 mi NW 13.8 mph - N/A   Scattered Clouds
10:35 AM 28.0 °F 17.0 °F 16.5 °F 62% 30.07 in 10.0 mi WNW 13.8 mph 20.7 mph N/A   Overcast
10:55 AM 27.9 °F 16.8 °F 15.4 °F 60% 30.08 in 10.0 mi WNW 13.8 mph 19.6 mph N/A   Scattered Clouds
11:15 AM 28.4 °F 18.0 °F 16.5 °F 61% 30.08 in 10.0 mi West 12.7 mph 17.3 mph N/A   Mostly Cloudy
11:35 AM 28.0 °F 18.6 °F 16.3 °F 62% 30.09 in 10.0 mi WNW 10.4 mph 19.6 mph N/A   Overcast
11:55 AM 27.3 °F 15.2 °F 14.7 °F 59% 30.09 in 10.0 mi WNW 16.1 mph 23.0 mph N/A   Overcast
12:15 PM 26.8 °F 14.9 °F 13.3 °F 57% 30.09 in 10.0 mi WNW 15.0 mph 20.7 mph N/A   Overcast
12:35 PM 26.2 °F 12.6 °F 10.9 °F 52% 30.09 in 10.0 mi NW 19.6 mph 26.5 mph N/A   Overcast
12:55 PM 25.2 °F 13.3 °F 9.1 °F 51% 30.11 in 10.0 mi WNW 13.8 mph 28.8 mph N/A   Overcast
1:15 PM 23.9 °F 11.2 °F 9.3 °F 54% 30.13 in 10.0 mi WNW 15.0 mph 25.3 mph N/A   Overcast
1:35 PM 22.3 °F 9.2 °F 7.2 °F 52% 30.14 in 10.0 mi WNW 15.0 mph 27.6 mph N/A   Overcast
1:55 PM 22.5 °F 9.4 °F 7.2 °F 52% 30.14 in 10.0 mi WNW 15.0 mph 24.2 mph N/A   Overcast
2:15 PM 22.6 °F 7.9 °F 7.7 °F 53% 30.16 in 10.0 mi NW 19.6 mph 26.5 mph N/A   Overcast
2:35 PM 21.6 °F 6.5 °F 5.9 °F 51% 30.18 in 10.0 mi West 19.6 mph 31.1 mph N/A   Mostly Cloudy
2:55 PM 21.9 °F 6.5 °F 5.4 °F 49% 30.19 in 10.0 mi NW 20.7 mph 26.5 mph N/A   Mostly Cloudy
3:15 PM 21.2 °F 6.0 °F 4.6 °F 49% 30.21 in 10.0 mi NW 19.6 mph 29.9 mph N/A   Mostly Cloudy
3:35 PM 20.5 °F 7.4 °F 4.6 °F 50% 30.22 in 10.0 mi WNW 13.8 mph 25.3 mph N/A   Mostly Cloudy
3:55 PM 19.2 °F 3.8 °F 3.7 °F 51% 30.23 in 10.0 mi NW 18.4 mph 26.5 mph N/A   Mostly Cloudy
4:15 PM 18.1 °F 5.0 °F 3.0 °F 52% 30.24 in 10.0 mi NW 12.7 mph 23.0 mph N/A   Scattered Clouds
4:35 PM 18.0 °F 3.6 °F 3.0 °F 52% 30.24 in 10.0 mi WNW 15.0 mph 23.0 mph N/A   Mostly Cloudy
4:55 PM 17.6 °F 5.7 °F 3.4 °F 54% 30.25 in 10.0 mi WNW 10.4 mph 19.6 mph N/A   Mostly Cloudy
5:15 PM 17.2 °F 3.3 °F 3.2 °F 54% 30.26 in 10.0 mi WNW 13.8 mph 19.6 mph N/A   Mostly Cloudy
5:35 PM 16.3 °F 1.6 °F 2.7 °F 55% 30.27 in 10.0 mi WNW 15.0 mph 23.0 mph N/A   Scattered Clouds
5:55 PM 15.8 °F 2.1 °F 2.8 °F 57% 30.29 in 10.0 mi WNW 12.7 mph 23.0 mph N/A   Scattered Clouds
6:15 PM 15.4 °F 1.0 °F 2.5 °F 57% 30.30 in 10.0 mi WNW 13.8 mph 21.9 mph N/A   Mostly Cloudy
6:35 PM 14.5 °F -0.2 °F 1.8 °F 57% 30.32 in 10.0 mi WNW 13.8 mph 23.0 mph N/A   Clear
6:55 PM 14.0 °F -2.5 °F 1.2 °F 57% 30.33 in 10.0 mi NW 17.3 mph 28.8 mph N/A   Scattered Clouds
7:15 PM 13.6 °F -0.7 °F 1.6 °F 59% 30.34 in 10.0 mi WNW 12.7 mph 19.6 mph N/A   Overcast
7:35 PM 13.3 °F -1.1 °F 1.0 °F 58% 30.35 in 10.0 mi NW 12.7 mph 21.9 mph N/A   Scattered Clouds
7:55 PM 12.6 °F -2.0 °F -0.0 °F 57% 30.37 in 10.0 mi WNW 12.7 mph 21.9 mph N/A   Scattered Clouds
8:15 PM 12.0 °F -2.7 °F -0.9 °F 56% 30.38 in 10.0 mi WNW 12.7 mph 18.4 mph N/A   Scattered Clouds
8:35 PM 11.7 °F -0.9 °F -0.9 °F 57% 30.39 in 10.0 mi WNW 9.2 mph - N/A   Clear
8:55 PM 11.3 °F -2.2 °F -1.1 °F 57% 30.39 in 10.0 mi NW 10.4 mph - N/A   Clear
9:15 PM 11.3 °F -2.9 °F -1.3 °F 57% 30.40 in 10.0 mi NW 11.5 mph - N/A   Clear
9:35 PM 11.1 °F -3.2 °F -2.0 °F 56% 30.41 in 10.0 mi WNW 11.5 mph 17.3 mph N/A   Clear
9:55 PM 10.8 °F 1.2 °F -2.4 °F 56% 30.43 in 10.0 mi WNW 5.8 mph 17.3 mph N/A   Clear
10:15 PM 10.8 °F -2.0 °F -2.0 °F 56% 30.43 in 10.0 mi WNW 9.2 mph - N/A   Clear
10:35 PM 10.8 °F -1.1 °F -1.8 °F 57% 30.44 in 10.0 mi WNW 8.1 mph - N/A   Scattered Clouds
10:55 PM 10.8 °F -2.8 °F -1.7 °F 57% 30.44 in 10.0 mi WNW 10.4 mph 18.4 mph N/A   Scattered Clouds
11:15 PM 10.6 °F -3.1 °F -1.8 °F 57% 30.46 in 10.0 mi West 10.4 mph - N/A   Clear
11:35 PM 10.6 °F -3.1 °F -1.5 °F 58% 30.46 in 10.0 mi WNW 10.4 mph - N/A   Clear
11:55 PM 10.8 °F -2.0 °F -1.3 °F 58% 30.46 in 10.0 mi West 9.2 mph - N/A   Clear